Red Top, MT

7:01 PM MST on February 22, 2017 (GMT -0700)
| | Change Station
Active Advisory: Areal Flood Watch Active Notice: Areal Flood Watch

Elev -9999 ft 0.00 °N, 0.00 °E | Updated 0 second ago

Overcast
Overcast
°F
Feels Like °F
N
Wind Variable Wind from North
Gusts mph

Today
High -- | Low -- °F
--% Chance of Precip.
Yesterday
High -- | Low -- °F
Precip. -- in
Pressure 30.07 in
Visibility 10.0 miles
Clouds Overcast 2000 ft
Dew Point Not available.
Humidity Not available.
Rainfall --
Snow Depth Not available.
6:51 AM 5:34 PM
Waning Crescent, 13% visible
METAR KGDV 230156Z AUTO 03004KT 10SM -SN OVC020 M02/M03 A2999 RMK AO2 SNB56 SLP183 P0000 T10221033 FZRANO
Pressure 30.07 in
Visibility 10.0 miles
Clouds Overcast 2000 ft
Dew Point Not available.
Humidity Not available.
Rainfall --
Snow Depth Not available.
6:51 AM 5:34 PM
Waning Crescent, 13% visible
METAR KGDV 230156Z AUTO 03004KT 10SM -SN OVC020 M02/M03 A2999 RMK AO2 SNB56 SLP183 P0000 T10221033 FZRANO

Get Your Daily Forecast Email!

Thanks for signing up!

Be on the lookout for a verification email in your inbox.

You'll start receiving the daily forecast at 8 AM.

×

10-Day Weather Forecast

Almanac

Astronomy

Feb. 22, 2017 Rise Set
Actual Time
Civil Twilight
Nautical Twilight
Astronomical Twilight
Moon
Length of Visible Light
Length of Day
Tomorrow will be .
, % of the Moon is Illuminated

Today's Extremes

State Highs State Lows

Community

WunderPhotos

Upload Photos

1,962,540 photos uploaded!

WunderBlog® & News

Nearby

Air Quality

  Air Quality AQ Index Pollutant
Not available.

Snow Depth

Station Depth Elevation

Earthquake Activity

City Distance Mag. Time & Date
Minimum magnitude displayed is 2.5.

Coastal Water Temperatures

Place Temperature

Stations

Nearby Weather Stations

Station Location Temp. Windchill Dew Point Humidity Wind Precip. Elev Updated Type
                   

Watches & Warnings

Areal Flood Watch
Issued: 2:09 PM MST Feb. 22, 2017 – National Weather Service

... Flood Watch remains in effect through Friday afternoon...

The Flood Watch continues for

* a portion of northeast Montana, including the following areas,
central and southern valley, Dawson, Richland, and Sheridan.

* Through Friday afternoon

* ice is breaking up and flowing along many of the rivers and
streams across the region. This includes the Yellowstone river
in the Glendive area. A new ice jam could form and bring
quickly rising water levels.

* An ice jam on the milk river in the Glasgow area continues to
contribute to High River levels. Levels continue to slowly
rise but are not expected to reach flood stage yet.

Precautionary/preparedness actions...

A Flood Watch means there is a potential for flooding based on
current forecasts.

You should monitor later forecasts and be alert for possible
flood warnings. Those living in areas prone to flooding should be
prepared to take action should flooding develop.